Vorticity
14 10 18 5 -2 14 -5 10 -5 -8 19 -11 24 5 1 5 25 12 10 19 5 1 5 5 14 6 7 5 3 8 13 -1 12 -2 2 8 14 11
0 13 1 21 5 12 12 16 10 8 1 24 17 17 12 20 11 9 14 10 1 2 4 3 3 10 -1 5 9 9 7 20 9 9 13 13 7 6
15 2 9 -15 20 18 25 5 11 21 29 13 2 5 15 5 5 7 15 8 11 -2 6 9 -1 3 9 -1 7 3 7 10 -3 14 7 12 8 5
-10 15 -26 13 7 31 21 28 37 32 12 14 1 8 3 12 3 11 15 7 3 4 0 3 -1 -0 -2 2 10 11 12 11 9 12 8 17 5 3
11 1 28 29 8 17 8 9 10 14 8 5 2 11 11 9 9 12 11 7 2 5 -4 15 12 9 5 1 23 0 3 10 7 2 12 3 12 -1
2 43 29 15 4 1 12 5 5 7 11 12 8 12 15 12 4 8 13 17 7 3 12 7 23 17 13 10 11 -1 -2 13 9 3 10 5 13 7
26 4 8 5 22 11 18 19 23 17 15 18 15 16 12 14 21 10 9 15 8 42 25 9 7 22 24 8 14 22 9 11 1 4 9 2 7 19
1 15 24 11 7 5 7 6 6 4 2 5 6 8 2 2 6 3 -3 4 13 5 7 -0 18 13 19 0 10 17 3 6 6 12 3 17 11 12
6 3 2 1 -0 1 10 21 31 30 23 15 12 7 11 9 8 6 5 3 3 -2 2 10 8 14 18 12 19 13 12 13 12 11 19 10 20 8
-0 3 4 14 33 14 1 1 1 1 1 3 4 4 6 5 5 4 3 5 4 3 2 4 5 6 14 12 15 14 16 18 16 8 25 10 13 21
36 22 15 3 3 3 3 4 5 5 4 4 6 6 7 6 6 5 4 2 4 6 5 5 12 16 14 18 17 9 10 22 23 14 16 19 13 13
5 3 3 4 5 5 5 6 4 4 3 2 1 1 2 2 5 4 5 4 6 7 4 10 25 34 24 20 19 23 13 11 3 11 17 16 23 15
5 6 5 5 3 2 1 1 2 1 3 3 4 3 3 2 5 6 7 11 5 6 10 33 36 24 17 15 24 28 22 24 15 19 23 7 20 18
4 3 3 3 4 4 4 4 4 3 4 6 6 6 4 3 6 8 9 9 11 16 42 42 21 17 31 24 10 11 13 17 13 11 21 19 11 22
3 4 3 3 3 4 4 4 4 5 5 5 5 6 5 4 9 9 8 15 17 56 25 17 18 4 13 4 19 12 15 16 19 19 11 10 27 8
6 6 5 4 3 3 3 3 3 3 5 7 7 7 5 4 7 5 9 24 35 74 7 27 29 -13 21 9 10 7 19 18 28 21 20 24 18 5
4 8 9 7 5 3 2 3 2 2 3 11 9 7 4 4 7 4 14 27 48 57 -8 7 9 6 4 13 15 19 13 12 12 17 20 13 9 9
6 7 5 3 2 3 4 4 5 1 6 11 10 7 5 7 5 9 27 44 50 6 8 -1 26 14 21 19 11 11 15 8 13 15 18 11 11 9
6 3 1 2 3 5 7 5 1 7 11 10 8 6 6 7 9 25 39 43 47 24 -13 42 25 5 -7 30 0 10 4 19 13 12 13 15 10 9
3 3 3 5 6 8 5 1 7 12 11 9 7 5 8 10 23 36 40 48 29 20 15 5 25 -5 12 20 20 -1 6 8 15 11 13 12 12 10
6 6 6 7 8 -0 1 10 10 12 8 7 5 7 13 24 32 36 46 38 26 17 17 -9 22 -12 35 20 10 17 8 8 17 6 8 17 10 11
6 7 5 -1 -3 10 13 8 13 10 7 5 6 11 29 31 30 37 40 32 16 13 18 -0 30 31 24 -1 10 16 19 12 10 2 15 16 11 9
5 10 16 15 13 9 9 13 9 7 6 7 13 28 33 28 28 38 44 22 18 16 -16 18 14 11 14 18 11 12 3 12 5 15 11 15 9 5
Height
5743 5751 5753 5752 5755 5752 5751 5750 5750 5750 5751 5752 5750 5748 5750 5752 5749 5746 5744 5743 5742 5740 5738 5737 5736 5735 5734 5733 5732 5729 5727 5724 5724 5723 5721 5720 5719 5717
5738 5741 5742 5742 5742 5740 5739 5738 5736 5736 5737 5739 5738 5736 5736 5737 5735 5733 5732 5731 5730 5729 5729 5728 5726 5724 5724 5722 5723 5720 5717 5714 5712 5711 5710 5709 5709 5707
5729 5730 5730 5730 5727 5726 5725 5725 5723 5723 5723 5727 5726 5725 5725 5724 5723 5723 5721 5720 5720 5719 5718 5717 5715 5712 5712 5710 5708 5706 5704 5703 5701 5702 5700 5699 5698 5698
5719 5719 5719 5717 5715 5714 5713 5712 5712 5711 5711 5714 5714 5715 5714 5713 5712 5711 5710 5710 5709 5708 5705 5704 5702 5700 5698 5697 5697 5694 5694 5691 5690 5690 5690 5690 5689 5688
5708 5709 5707 5706 5705 5704 5703 5703 5701 5700 5701 5702 5704 5705 5704 5702 5700 5698 5698 5698 5697 5695 5693 5691 5689 5687 5686 5684 5685 5682 5680 5679 5677 5677 5678 5678 5678 5676
5696 5697 5695 5696 5695 5695 5694 5694 5692 5692 5692 5692 5694 5694 5693 5691 5688 5688 5687 5686 5684 5682 5680 5677 5675 5673 5671 5669 5668 5668 5667 5665 5665 5665 5666 5667 5666 5665
5683 5683 5684 5686 5685 5685 5686 5684 5684 5684 5683 5682 5682 5682 5681 5680 5678 5676 5675 5673 5673 5671 5668 5665 5661 5659 5656 5654 5652 5651 5651 5651 5651 5651 5650 5652 5653 5654
5671 5672 5674 5675 5676 5677 5677 5675 5674 5674 5673 5672 5671 5671 5670 5669 5667 5664 5663 5662 5662 5657 5652 5651 5648 5644 5641 5640 5638 5638 5638 5636 5637 5637 5637 5638 5638 5638
5664 5665 5666 5666 5666 5668 5668 5667 5665 5664 5662 5661 5661 5660 5658 5656 5656 5653 5650 5648 5646 5644 5640 5637 5634 5632 5629 5628 5625 5624 5623 5622 5622 5622 5623 5623 5623 5624
5656 5657 5658 5658 5658 5658 5658 5657 5655 5653 5653 5651 5651 5649 5646 5644 5642 5640 5637 5634 5631 5627 5624 5621 5618 5616 5614 5611 5610 5610 5610 5609 5608 5608 5609 5609 5611 5612
5649 5648 5649 5650 5649 5650 5648 5648 5647 5644 5643 5641 5639 5638 5634 5629 5626 5624 5620 5616 5613 5609 5604 5602 5598 5595 5594 5593 5593 5593 5594 5595 5595 5595 5595 5596 5597 5598
5643 5643 5642 5642 5641 5640 5640 5636 5636 5635 5631 5629 5626 5622 5617 5615 5610 5605 5599 5597 5595 5590 5585 5581 5579 5576 5575 5575 5574 5575 5576 5578 5580 5582 5584 5585 5584 5585
5635 5635 5633 5631 5630 5629 5628 5625 5625 5621 5619 5613 5610 5607 5601 5597 5592 5586 5582 5579 5573 5569 5564 5560 5560 5558 5557 5557 5558 5560 5560 5561 5564 5566 5569 5572 5574 5576
5627 5625 5623 5621 5618 5616 5614 5613 5610 5606 5602 5597 5595 5590 5584 5578 5574 5569 5564 5557 5550 5545 5542 5542 5543 5542 5541 5543 5544 5546 5547 5548 5550 5554 5556 5558 5561 5564
5615 5612 5610 5607 5604 5602 5600 5597 5594 5589 5585 5581 5576 5570 5565 5561 5555 5548 5542 5534 5527 5525 5523 5527 5529 5530 5531 5532 5533 5535 5537 5538 5540 5542 5544 5548 5551 5554
5603 5600 5597 5593 5591 5588 5585 5580 5575 5571 5567 5562 5557 5552 5547 5541 5534 5528 5520 5513 5507 5508 5509 5512 5515 5518 5519 5521 5524 5525 5527 5529 5530 5531 5535 5538 5541 5545
5588 5585 5581 5578 5574 5570 5567 5563 5558 5553 5548 5544 5539 5533 5527 5519 5513 5504 5497 5490 5487 5488 5493 5496 5501 5504 5507 5511 5514 5516 5519 5521 5523 5525 5527 5530 5533 5538
5572 5568 5565 5562 5558 5555 5550 5545 5539 5534 5529 5523 5518 5511 5505 5498 5491 5482 5474 5466 5466 5471 5476 5481 5485 5489 5494 5498 5503 5507 5509 5512 5515 5518 5520 5523 5527 5531
5555 5552 5548 5544 5540 5535 5531 5526 5520 5514 5507 5500 5496 5489 5483 5475 5467 5458 5449 5445 5448 5453 5460 5465 5471 5476 5481 5485 5490 5496 5500 5503 5506 5509 5512 5516 5520 5525
5536 5533 5529 5525 5520 5515 5510 5504 5498 5491 5485 5480 5473 5466 5458 5451 5443 5434 5429 5428 5431 5438 5446 5452 5458 5463 5467 5472 5477 5484 5489 5494 5497 5501 5505 5509 5513 5518
5517 5512 5507 5503 5497 5492 5487 5481 5476 5470 5464 5457 5450 5442 5434 5427 5420 5415 5412 5413 5418 5426 5434 5441 5446 5450 5455 5460 5466 5473 5479 5484 5489 5493 5497 5502 5506 5511
5497 5492 5486 5481 5476 5470 5465 5460 5454 5447 5441 5434 5427 5419 5412 5406 5401 5399 5399 5402 5408 5415 5422 5429 5434 5440 5445 5451 5457 5463 5468 5474 5480 5485 5490 5495 5499 5503
5474 5469 5463 5457 5452 5447 5442 5436 5430 5423 5417 5411 5404 5398 5392 5388 5385 5385 5388 5392 5398 5405 5413 5419 5424 5431 5436 5442 5448 5454 5460 5466 5471 5476 5481 5486 5490 5495